Find Starlink 37129

NORAD ID: 68274 Int'l Des: 2026-055 Owner: SPXS Country: US Constellation: starlink operational
LEOCIRCULAR

Current View

Loading 3D Globe...

About Starlink 37129

Starlink 37129 (NORAD 68274) is a starlink constellation satellite (v2 mini) launched Mar 19, 2026 by SPXS of US. It operates in LEO, CIRCULAR orbit with a mass of 575.00 kg.

About Starlink 37129

Description loading...

Upcoming Passes

Passes for default location (London). Set your location on the main map for personalized predictions.

Altitude History

Loading altitude history...

Two-Line Element Set

1 68274U 26055N 26169.79949427 .00014051 00000-0 42631-3 0 9990
2 68274 53.1557 208.0387 0001040 77.8646 282.2473 15.34392686 15434
Epoch: Jun 18, 2026 • Age: 12 hours

Current Status

Altitude 464.6 km
Velocity 7.63 km/s
Sub-Earth Point -6.26°S, 178.47°E
Launch Date Mar 19, 2026
Age 0.2 years
Type internet

Technical Details

Classification Payload
Mass 575.00 kg
Dry Mass 530.00 kg
Total Mass 575.00 kg
Length 0.30 m
Diameter 4.10 m
Span 29.00 m
Shape Box + pan
Manufacturer SPXS
Bus Type Starlink V2MO
Phase Status In Orbit
Owner/State SPXS/US

Most Searched